Weather History for Sheridan, WY

Change the Weather History Date:

Sunday, January 20, 2013

  Actual Average Record
Temperature  
Mean Temperature 25 °F 24 °F  
Max Temperature 32 °F 36 °F 61 °F (2009)
Min Temperature 17 °F 12 °F -28 °F (1985)
Degree Days  
Heating Degree Days 40 41  
Month to date heating degree days 817 829  
Since 1 July heating degree days 3772 4012  
Cooling Degree Days 0 0  
Month to date cooling degree days 0 0  
Year to date cooling degree days 0 0  
Moisture  
Dew Point 17 °F    
Average Humidity 74    
Maximum Humidity 84    
Minimum Humidity 63    
Precipitation  
Precipitation T in 0.02 in 0.64 in (1915)
Month to date precipitation 0.02 0.34  
Year to date precipitation 0.02 0.34  
Sea Level Pressure  
Sea Level Pressure 30.40 in    
Wind  
Wind Speed 10 mph (NW)    
Max Wind Speed 33 mph    
Max Gust Speed 40 mph    
Visibility 10 miles    
Events Snow    
T = Trace of Precipitation, MM = Missing Value Source: NWS Daily Summary

Daily Weather History Graph

Daily Weather History Graph

Search for Another Location

Airport:

Trip Planner

Search our weather history database for the weather conditions in past years. The results will help you decide how hot, cold, wet, or windy it might be!

Date:

Astronomy

Jan. 20, 2013 Rise Set
Actual Time 7:38 AM MST 5:00 PM MST
Civil Twilight 7:06 AM MST 5:32 PM MST
Nautical Twilight 6:30 AM MST 6:08 PM MST
Astronomical Twilight 5:55 AM MST 6:43 PM MST
Moon 12:03 PM MST (1/20) 2:12 AM MST (1/20)
Length of Visible Light 10h 26m
Length of Day
9h 21m
Waxing Gibbous, 67% of the Moon is Illuminated
Jan 20
Waxing Gibbous
Jan 26
Full
Feb 3
Last Quarter
Feb 10
New
Feb 17
First Quarter

Hourly Weather History & Observations

Time (MST) Temp. Windchill Dew Point Humidity Pressure Visibility Wind Dir Wind Speed Gust Speed Precip Events Conditions
12:53 AM 19.0 °F 13.9 °F 15.1 °F 85% 30.16 in 10.0 mi South 3.5 mph - N/A   Clear
1:53 AM 19.9 °F - 16.0 °F 85% 30.19 in 10.0 mi Calm Calm - N/A   Clear
2:53 AM 25.0 °F - 17.1 °F 72% 30.22 in 10.0 mi Calm Calm - N/A   Clear
3:53 AM 30.9 °F 15.5 °F 19.0 °F 61% 30.29 in 10.0 mi NNW 33.4 mph 39.1 mph N/A   Clear
4:53 AM 28.0 °F 12.8 °F 19.0 °F 69% 30.39 in 10.0 mi WNW 27.6 mph 35.7 mph N/A   Clear
5:48 AM 26.6 °F 15.2 °F 19.4 °F 74% 30.34 in 10.0 mi NNW 13.8 mph - N/A   Overcast
5:53 AM 26.1 °F 13.1 °F 19.0 °F 75% 30.47 in 10.0 mi NNW 17.3 mph 23.0 mph N/A   Overcast
6:27 AM 24.8 °F 11.1 °F 19.4 °F 80% 30.34 in 10.0 mi NNW 18.4 mph 25.3 mph N/A   Overcast
6:53 AM 24.1 °F 10.6 °F 19.0 °F 81% 30.48 in 10.0 mi North 17.3 mph - N/A   Overcast
7:27 AM 23.0 °F 11.7 °F 19.4 °F 86% 30.36 in 5.0 mi NW 11.5 mph - 0.00 in Snow Light Snow
7:53 AM 23.0 °F 10.1 °F 19.0 °F 85% 30.51 in 8.0 mi NW 15.0 mph - 0.00 in Snow Light Snow
8:15 AM 21.2 °F 8.3 °F 17.6 °F 86% 30.37 in 10.0 mi WNW 13.8 mph - 0.00 in   Overcast
8:53 AM 21.9 °F 7.3 °F 17.1 °F 82% 30.53 in 10.0 mi NW 18.4 mph - 0.00 in   Overcast
9:53 AM 23.0 °F 10.6 °F 17.1 °F 78% 30.54 in 10.0 mi NW 13.8 mph - N/A   Overcast
10:53 AM 23.0 °F 10.6 °F 15.8 °F 74% 30.38 in 10.0 mi NNW 13.8 mph - N/A   Overcast
11:03 AM 23.0 °F 10.6 °F 15.8 °F 74% 30.38 in 10.0 mi NNW 13.8 mph - N/A   Overcast
11:53 AM 23.0 °F 12.4 °F 16.0 °F 74% 30.52 in 10.0 mi NW 10.4 mph - N/A   Overcast
12:53 PM 23.0 °F 12.4 °F 16.0 °F 74% 30.50 in 10.0 mi NNW 10.4 mph - N/A   Overcast
1:53 PM 23.0 °F 13.9 °F 16.0 °F 74% 30.48 in 10.0 mi WNW 8.1 mph - N/A   Overcast
2:53 PM 24.1 °F 16.0 °F 17.1 °F 75% 30.45 in 10.0 mi NNW 6.9 mph - N/A   Overcast
3:53 PM 23.0 °F 15.8 °F 17.1 °F 78% 30.43 in 10.0 mi NNW 5.8 mph - N/A   Overcast
4:53 PM 21.9 °F 14.5 °F 16.0 °F 78% 30.42 in 10.0 mi NW 5.8 mph - N/A   Scattered Clouds
5:53 PM 19.0 °F 12.3 °F 14.0 °F 81% 30.44 in 10.0 mi North 4.6 mph - N/A   Partly Cloudy
6:21 PM 17.6 °F 10.7 °F 14.0 °F 86% 30.30 in 10.0 mi NW 4.6 mph - N/A   Mostly Cloudy
6:53 PM 19.0 °F - 15.1 °F 85% 30.45 in 10.0 mi Calm Calm - N/A   Overcast
7:53 PM 19.9 °F - 14.0 °F 78% 30.45 in 10.0 mi Calm Calm - N/A   Overcast
8:45 PM 21.2 °F - 15.8 °F 80% 30.28 in 10.0 mi Calm Calm - N/A   Overcast
8:53 PM 21.0 °F 13.4 °F 15.1 °F 78% 30.44 in 10.0 mi WNW 5.8 mph - N/A   Overcast
9:53 PM 19.9 °F 13.4 °F 16.0 °F 85% 30.43 in 10.0 mi NNW 4.6 mph - N/A   Overcast
10:53 PM 21.0 °F 13.4 °F 16.0 °F 81% 30.43 in 10.0 mi WNW 5.8 mph - N/A   Overcast
11:53 PM 19.9 °F - 16.0 °F 85% 30.40 in 10.0 mi Calm Calm - N/A   Overcast